N4DBJ Weather Reports


Display with metric or nautical units.
time (UTC)temp
F
wind
direction
speed
MPH
gust
MPH
rain 1hr
in
rain 24hr
in
rain mn
in
humidity
%
barometer
mb
20260504060241 46 113 0.0 0.0 0.00 0.00 0.00 92 1012.0
20260504050709 46 61 0.0 0.0 0.00 0.00 0.00 87 1012.5
20260504050206 47 61 0.0 0.0 0.00 0.00 0.00 86 1012.9
20260504045704 47 61 0.0 0.0 0.00 0.00 0.00 86 1012.6
20260504045204 47 61 0.0 0.0 0.00 0.00 0.00 86 1012.7
20260504044702 47 61 0.0 0.0 0.00 0.00 0.00 85 1012.6
20260504044159 48 61 0.0 0.0 0.00 0.00 0.00 84 1012.6
20260504043655 48 61 0.0 0.0 0.00 0.00 0.00 83 1012.6
20260504043153 48 61 0.0 0.0 0.00 0.00 0.00 82 1012.7
20260504042650 49 61 0.0 0.0 0.00 0.00 0.00 81 1012.7
20260504042146 49 61 0.0 0.0 0.00 0.00 0.00 81 1012.8
20260504041642 50 61 0.0 0.0 0.00 0.00 0.00 79 1012.6
20260504041138 50 61 0.0 0.0 0.00 0.00 0.00 77 1012.7
20260504040636 51 61 0.0 0.0 0.00 0.00 0.00 75 1012.9
20260504040133 51 61 0.0 0.0 0.00 0.00 0.00 75 1012.8
20260504035629 52 61 0.0 0.0 0.00 0.00 0.00 74 1012.8
20260504035126 53 60 0.0 0.0 0.00 0.00 0.00 73 1012.8
20260504034624 53 196 1.0 1.0 0.00 0.00 0.00 71 1012.7
20260504034121 54 186 1.0 1.0 0.00 0.00 0.00 69 1012.6
20260504033618 54 172 0.0 1.0 0.00 0.00 0.00 67 1012.4
20260504033116 55 245 1.0 1.0 0.00 0.00 0.00 67 1012.5
20260504032612 55 318 0.0 1.0 0.00 0.00 0.00 67 1012.2
20260504032109 54 246 0.0 2.0 0.00 0.00 0.00 67 1012.2
20260504031606 54 223 0.0 2.0 0.00 0.00 0.00 68 1012.4
20260504031102 54 110 3.0 3.0 0.00 0.00 0.00 68 1012.3
20260504030600 53 171 1.0 1.0 0.00 0.00 0.00 71 1012.2
20260504030056 51 168 1.0 2.0 0.00 0.00 0.00 76 1012.5
20260504025553 49 287 2.0 3.0 0.00 0.00 0.00 82 1012.4
20260504025050 48 195 1.0 1.0 0.00 0.00 0.00 85 1012.6
20260504024547 48 167 0.0 1.0 0.00 0.00 0.00 85 1012.9
20260504024044 48 167 0.0 0.0 0.00 0.00 0.00 85 1012.7
20260504023540 48 167 0.0 0.0 0.00 0.00 0.00 85 1012.6
20260504023036 48 167 0.0 0.0 0.00 0.00 0.00 85 1012.9
20260504022532 48 167 0.0 0.0 0.00 0.00 0.00 84 1012.8
20260504022029 49 166 0.0 0.0 0.00 0.00 0.00 84 1012.7
20260504021526 49 167 0.0 0.0 0.00 0.00 0.00 83 1012.7
20260504021023 49 167 0.0 0.0 0.00 0.00 0.00 82 1013.0
20260504020520 50 167 0.0 0.0 0.00 0.00 0.00 80 1012.8
20260504020017 50 167 0.0 0.0 0.00 0.00 0.00 80 1013.0
20260504015513 50 167 0.0 0.0 0.00 0.00 0.00 79 1013.0
20260504015009 51 167 0.0 0.0 0.00 0.00 0.00 78 1013.0
20260504014505 51 167 0.0 0.0 0.00 0.00 0.00 77 1012.8
20260504014003 51 167 0.0 0.0 0.00 0.00 0.00 78 1012.6
20260504013501 52 167 0.0 0.0 0.00 0.00 0.00 76 1012.9
20260504012956 52 167 0.0 0.0 0.00 0.00 0.00 76 1012.7
20260504012454 53 166 0.0 0.0 0.00 0.00 0.00 75 1012.7
20260504011952 53 167 0.0 0.0 0.00 0.00 0.00 74 1012.7
20260504011448 53 174 0.0 0.0 0.00 0.00 0.00 74 1012.4
20260504010944 53 174 0.0 0.0 0.00 0.00 0.00 72 1012.5
20260504010440 54 175 0.0 0.0 0.00 0.00 0.00 70 1012.2
20260504005936 55 175 0.0 0.0 0.00 0.00 0.00 71 1012.3
20260504005433 55 225 0.0 1.0 0.00 0.00 0.00 67 1012.4
20260504004931 56 225 0.0 0.0 0.00 0.00 0.00 65 1012.6
20260504004429 57 189 0.0 0.0 0.00 0.00 0.00 64 1012.4
20260504003925 58 189 0.0 1.0 0.00 0.00 0.00 61 1012.2
20260504003422 58 186 0.0 0.0 0.00 0.00 0.00 60 1012.2
20260504002918 59 187 0.0 1.0 0.00 0.00 0.00 60 1012.2
20260504002415 60 164 1.0 2.0 0.00 0.00 0.00 54 1012.2
20260504001913 61 227 0.0 2.0 0.00 0.00 0.00 52 1012.4
20260504001410 62 157 0.0 2.0 0.00 0.00 0.00 51 1012.5
20260504000906 62 267 1.0 2.0 0.00 0.00 0.00 48 1012.4
20260504000404 63 277 0.0 1.0 0.00 0.00 0.00 48 1012.5
20260503235901 63 223 1.0 3.0 0.00 0.00 0.00 46 1012.7
20260503235359 63 317 2.0 2.0 0.00 0.00 0.00 48 1012.8
20260503234856 64 136 0.0 1.0 0.00 0.00 0.00 46 1012.7
20260503234354 64 168 0.0 2.0 0.00 0.00 0.00 46 1012.7
20260503233851 65 112 1.0 3.0 0.00 0.00 0.00 44 1012.8
20260503233347 66 187 1.0 2.0 0.00 0.00 0.00 43 1012.9
20260503232844 67 245 0.0 3.0 0.00 0.00 0.00 42 1012.7
20260503232341 68 246 0.0 2.0 0.00 0.00 0.00 41 1012.8
20260503231839 68 261 1.0 5.0 0.00 0.00 0.00 43 1012.9
20260503231336 69 205 0.0 2.0 0.00 0.00 0.00 43 1013.0
20260503230832 68 193 2.0 3.0 0.00 0.00 0.00 41 1013.0
20260503230329 67 282 3.0 3.0 0.00 0.00 0.00 42 1013.3
20260503225827 68 358 1.0 3.0 0.00 0.00 0.00 43 1013.4
20260503225322 67 152 2.0 9.0 0.00 0.00 0.00 41 1013.4
20260503224819 68 168 2.0 7.0 0.00 0.00 0.00 41 1013.5
20260503224316 68 155 3.0 8.0 0.00 0.00 0.00 40 1013.4
20260503223814 69 167 3.0 9.0 0.00 0.00 0.00 40 1013.7
20260503223311 70 319 2.0 5.0 0.00 0.00 0.00 40 1013.7
20260503222807 70 263 2.0 5.0 0.00 0.00 0.00 38 1013.7
20260503222306 69 239 1.0 5.0 0.00 0.00 0.00 40 1013.6
20260503221803 69 170 4.0 5.0 0.00 0.00 0.00 40 1013.6
20260503221301 68 265 1.0 6.0 0.00 0.00 0.00 39 1013.5
20260503220757 68 203 4.0 6.0 0.00 0.00 0.00 44 1013.7
20260503220254 68 155 4.0 6.0 0.00 0.00 0.00 42 1013.7
20260503215751 70 147 5.0 9.0 0.00 0.00 0.00 39 1013.8
20260503215248 70 165 3.0 3.0 0.00 0.00 0.00 42 1013.7
20260503214746 68 222 2.0 3.0 0.00 0.00 0.00 39 1013.8
20260503214243 69 211 3.0 6.0 0.00 0.00 0.00 39 1014.1
20260503213741 68 198 3.0 8.0 0.00 0.00 0.00 38 1014.4
20260503213238 68 269 1.0 7.0 0.00 0.00 0.00 42 1014.4
20260503212734 68 138 5.0 9.0 0.00 0.00 0.00 41 1014.4
20260503212232 68 41 2.0 3.0 0.00 0.00 0.00 40 1014.6
20260503211730 69 138 5.0 8.0 0.00 0.00 0.00 42 1014.5
20260503211226 68 138 3.0 5.0 0.00 0.00 0.00 40 1014.6
20260503210721 69 77 1.0 6.0 0.00 0.00 0.00 38 1014.8
20260503210219 69 202 1.0 3.0 0.00 0.00 0.00 41 1014.8
20260503205714 67 112 2.0 5.0 0.00 0.00 0.00 43 1014.9
20260503205210 66 315 2.0 8.0 0.00 0.00 0.00 42 1014.8
20260503204707 67 143 3.0 8.0 0.00 0.00 0.00 41 1014.9
20260503204205 67 66 1.0 6.0 0.00 0.00 0.00 41 1015.0
20260503203702 67 130 6.0 7.0 0.00 0.00 0.00 44 1015.3
20260503203159 67 131 2.0 8.0 0.00 0.00 0.00 45 1015.4
20260503202656 68 98 3.0 10.0 0.00 0.00 0.00 41 1015.4
20260503202154 66 175 2.0 3.0 0.00 0.00 0.00 45 1015.6
20260503201652 67 225 1.0 9.0 0.00 0.00 0.00 43 1015.6
20260503201149 68 252 3.0 5.0 0.00 0.00 0.00 41 1015.8
20260503200645 66 196 3.0 5.0 0.00 0.00 0.00 40 1015.9
20260503200141 67 253 2.0 5.0 0.00 0.00 0.00 42 1015.8
20260503195639 66 108 0.0 5.0 0.00 0.00 0.00 42 1016.1
20260503195136 67 148 2.0 10.0 0.00 0.00 0.00 45 1016.3
20260503194633 67 201 2.0 2.0 0.00 0.00 0.00 42 1016.5
20260503194128 67 194 2.0 5.0 0.00 0.00 0.00 41 1016.3
20260503193625 66 42 2.0 5.0 0.00 0.00 0.00 41 1016.8
20260503193121 65 169 3.0 5.0 0.00 0.00 0.00 39 1016.8
20260503192616 65 217 3.0 7.0 0.00 0.00 0.00 42 1017.0
20260503192112 65 193 5.0 8.0 0.00 0.00 0.00 41 1017.1
20260503191609 64 294 5.0 6.0 0.00 0.00 0.00 40 1016.9
20260503191106 65 197 2.0 8.0 0.00 0.00 0.00 45 1016.9
20260503190604 66 178 5.0 7.0 0.00 0.00 0.00 41 1016.9
20260503190101 64 149 5.0 6.0 0.00 0.00 0.00 41 1017.0
20260503185557 64 146 3.0 8.0 0.00 0.00 0.00 42 1017.2
20260503185056 66 158 1.0 3.0 0.00 0.00 0.00 39 1017.3
20260503184552 65 24 1.0 7.0 0.00 0.00 0.00 41 1017.5
20260503184049 64 115 2.0 9.0 0.00 0.00 0.00 38 1017.2
20260503183546 66 169 4.0 6.0 0.00 0.00 0.00 42 1017.1
20260503183043 64 65 2.0 8.0 0.00 0.00 0.00 42 1017.2
20260503182541 63 157 4.0 7.0 0.00 0.00 0.00 45 1017.2
20260503182039 63 181 2.0 3.0 0.00 0.00 0.00 45 1017.6
20260503181536 64 271 4.0 10.0 0.00 0.00 0.00 45 1017.8
20260503181032 64 154 2.0 5.0 0.00 0.00 0.00 45 1017.3
20260503180529 63 163 3.0 7.0 0.00 0.00 0.00 47 1017.8
20260503180027 64 59 1.0 5.0 0.00 0.00 0.00 44 1017.9
20260503175524 63 15 1.0 6.0 0.00 0.00 0.00 41 1017.8
20260503175021 63 54 3.0 8.0 0.00 0.00 0.00 44 1017.7
20260503174519 63 265 4.0 7.0 0.00 0.00 0.00 46 1017.9
20260503174014 62 154 4.0 7.0 0.00 0.00 0.00 45 1017.8
20260503173509 63 195 4.0 10.0 0.00 0.00 0.00 43 1018.1
20260503173007 62 181 2.0 5.0 0.00 0.00 0.00 45 1018.0
20260503172504 63 297 4.0 6.0 0.00 0.00 0.00 42 1018.1
20260503172001 62 172 1.0 3.0 0.00 0.00 0.00 41 1018.2
20260503171457 63 211 3.0 8.0 0.00 0.00 0.00 41 1018.3
20260503170954 62 279 1.0 5.0 0.00 0.00 0.00 43 1018.1
20260503170450 61 174 8.0 9.0 0.00 0.00 0.00 43 1018.4
20260503150843 59 327 3.0 3.0 0.00 0.00 0.00 44 1019.4
20260503150339 59 247 2.0 2.0 0.00 0.00 0.00 43 1019.5
20260503140303 52 89 1.0 3.0 0.00 0.00 0.00 64 1019.3
20260503131233 44 81 0.0 0.0 0.00 0.00 0.00 99 1019.3
20260503130731 43 88 0.0 0.0 0.00 0.00 0.00 99 1019.2
20260503130227 43 121 0.0 0.0 0.00 0.00 0.00 99 1019.2
20260503120153 34 208 0.0 0.0 0.00 0.00 0.00 99 1019.0
20260503110621 32 343 0.0 0.0 0.00 0.00 0.00 99 1018.3
20260503110118 32 343 0.0 0.0 0.00 0.00 0.00 99 1018.4
20260503090508 33 343 0.0 0.0 0.00 0.00 0.00 99 1017.9
20260503081434 34 343 0.0 0.0 0.00 0.00 0.00 99 1017.9
20260503080932 34 343 0.0 0.0 0.00 0.00 0.00 99 1017.9
20260503080428 34 343 0.0 0.0 0.00 0.00 0.00 99 1017.9
20260503072904 35 343 0.0 0.0 0.00 0.00 0.00 99 1017.5
20260503072401 35 343 0.0 0.0 0.00 0.00 0.00 99 1017.7
20260503071858 35 343 0.0 0.0 0.00 0.00 0.00 99 1017.7
20260503071355 35 343 0.0 0.0 0.00 0.00 0.00 99 1017.8
20260503070851 35 343 0.0 0.0 0.00 0.00 0.00 99 1017.6
20260503070349 35 343 0.0 0.0 0.00 0.00 0.00 99 1017.8